星链-32288 (STARLINK-32288)

导读

STARLINK-32288是美国太空探索技术公司SpaceX星链星座的成员卫星,于2024年8月31日发射入轨。星链项目旨在构建全球卫星互联网通信网络,为全球偏远地区、海洋空域等场景提供低延迟宽带接入服务。该卫星作为星链扩容组网的一部分,进一步完善了星座覆盖密度,助力提升全球卫星互联网服务的容量与稳定性。

基本信息
目录编号:
60943
目录名称:
STARLINK-32288
国际标识:
2024-155V
轨道中心:
EARTH
卫星名称:
星链-32288
卫星全名:
星链-32288 (STARLINK-32288)
卫星状态:
在轨 (已飞行734 天)
发射日期:
2024-08-31 UTC
国别 :
美国 (US)
星等 :
--
轨道信息
数据来源 国际轨道数据
星历时间: 2026-09-04T02:06:02+0800
9小时前
查看轨道信息
半长轴: 6840.886km
偏心率: 0.0001141
轨道倾角: 53.161°
近地点辐角 82.712°
升交点赤经 19.715°
平近点角 277.401°
近地点: 461.968km
远地点: 463.53km
周期: 93.849分钟
每日圈数: 15.343849
详细信息
固有亮度:
5
最大亮度:
2.5
卫星平台:
Starlink V1.0
覆盖范围:
全球
运营商:
太空探索技术公司
运营商所在国:
美国
制造商(研发单位):
太空探索技术公司
制造商所在国:
美国
使用方式:
暂无
卫星简介
Starlink 计划是 SpaceX 推出的全球卫星互联网项目,通过发射低轨道卫星,为全球尤其是偏远地区提供高速、低延迟的互联网服务。自 2019 年起,Starlink 已部署数千颗卫星,旨在缩小全球数字鸿沟,推动互联网普及。该项目还为军事、航空等行业提供通信支持,带来广泛经济效益。
2D轨道图
3D轨道图
轨道高度分析图
轨道倾角分析图
轨道综合分析图
查看轨道综合分析图